STARLINK-31669, 59515

Orbit data source: Space-Track

STARLINK-31669, 59515 is a payload satellite owned by SpaceX/Seattle (US) in LEO that was launched on Wed, 17 Apr 2024 UTC via an FALCON 9 launch vehicle from the Air Force Eastern Test Range (AFETR). Payload-class satellites include a variety of spacecraft equipped with specific instruments for various scientific and technological missions. These include communications satellites like Starlink; space stations such as the ISS; scientific satellites like the Hubble; Earth observation satellites from companies like Planet Labs, Umbra, and HawkEye 360; GPS; miniature CubeSats for education and research; and military/defense satellites.

Loading next visibility...
Identifier
59515, 2024-073E
Orbit
LEO
Country
Flag of USUS
Related business
Manufacturer
SpaceX/Seattle
Mission
Operational spacecraft
Bus & Motor
STARLINK V2M, Unknown motor
Mass
730 kg wet, ~700 kg dry
Launch date (UTC)
2024-04-17 (1 year ago)
Launch vehicle
FALCON 9
Launch site
Air Force Eastern Test Range (AFETR)
Object type
Payload
Rocket body
Debris
Shape & HBR
Unknown
Radar Cross Section
Large (>1 m²)

Expand to show TLE details & history
Last TLE update: 16 hours ago

TLE from 16 hours ago
0 STARLINK-31669
1 59515U 24073E   25260.25354799 -.00005056  00000-0 -17444-3 0  9991
2 59515  42.9978 217.2514 0000900 285.3588  74.7164 15.27562574 79656
Epoch: 2025-09-17T06:05Z
TLE epoch observation values (Epoch: 2025-09-17T06:05:06.546Z)
Latitude
-0.00002°
Longitude
129.54196°
Altitude
482.714 km
Speed
7.626 km/s
True Right ascension
14h 29m 00s
True Declination
0° 00' 00"
Sunlit
Object was in daylight at epoch
Visualization orbit readout
Latitude
Unknown
Longitude
Unknown
Altitude
Unknown
Speed
Unknown
Apparent Right ascension
Unknown
Apparent Declination
Unknown
Sunlit
N/A
Visualization observer readout
Local Sidereal Time
14:36:46
Azimuth
Unknown
Elevation
Unknown
Doppler factor
Unknown
Orbital elements
Apogee altitude
485.664 km
Perigee altitude
484.429 km
Semi-major axis
6,863.184 km
Eccentricity
0.00009
Inclination
42.9978°
RAAN
217.2514°
Arg. of periapsis
285.3588°
True anomaly
74.72635°
Mean anomaly
74.7164°
Eccentric anomaly
74.72137°
Mean motion
3.81729 °/min
Orbital period
94.31 mins
BSTAR
-0.00017444
Loading maneuver chart data...
Computing Atmospheric mass density...
Loading historical data...
Loading historical data...
Loading historical data...
Loading historical data...
Loading historical data...
Loading historical data...
Loading historical data...

Documentation

Showing up to 5 results
|